This is the latest recevied weather packets stored in our database for station/object KB0Y. If no packets are shown the sender has not sent any weather packets the latest 10 day(s).
| Time | Temp. | Humidity | Pressure | Rain* | Wind** | Luminosity | Snow |
|---|---|---|---|---|---|---|---|
| 1777868683 | 12.22° C | 88% | 1022.8 hPa | 0 mm | - | 0 W/m² | - |
| 1777868380 | 12.22° C | 89% | 1023.1 hPa | 0 mm | - | 0 W/m² | - |
| 1777868076 | 12.78° C | 90% | 1022.8 hPa | 0 mm | - | 0 W/m² | - |
| 1777867772 | 12.78° C | 89% | 1022.8 hPa | 0 mm | - | 0 W/m² | - |
| 1777867470 | 12.78° C | 89% | 1022.8 hPa | 0 mm | - | 0 W/m² | - |
| 1777867166 | 12.78° C | 90% | 1022.8 hPa | 0 mm | - | 0 W/m² | - |
| 1777866863 | 12.78° C | 89% | 1023.1 hPa | 0 mm | - | 0 W/m² | - |
| 1777866560 | 12.78° C | 89% | 1022.8 hPa | 0 mm | - | 0 W/m² | - |
| 1777866258 | 13.33° C | 86% | 1022.8 hPa | 0 mm | - | 0 W/m² | - |
| 1777865954 | 13.33° C | 86% | 1022.8 hPa | 0 mm | - | 0 W/m² | - |
| 1777865652 | 13.33° C | 87% | 1022.8 hPa | 0 mm | - | 0 W/m² | - |
| 1777865349 | - | - | - | 0 mm | - | - | - |
| 1777865046 | - | - | - | 0 mm | - | - | - |
| 1777864742 | 13.33° C | 88% | 1022.8 hPa | 0 mm | - | 0 W/m² | - |
| 1777864440 | 13.33° C | 88% | 1022.8 hPa | 0 mm | - | 0 W/m² | - |
| 1777864136 | 14.44° C | 84% | 1022.8 hPa | 0 mm | - | 0 W/m² | - |
| 1777863833 | 14.44° C | 84% | 1022.8 hPa | 0 mm | - | 0 W/m² | - |
| 1777863529 | 14.44° C | 84% | 1022.8 hPa | 0 mm | - | 0 W/m² | - |
| 1777863226 | 14.44° C | 86% | 1022.8 hPa | 0 mm | - | 0 W/m² | - |
| 1777862923 | 14.44° C | 84% | 1022.8 hPa | 0 mm | - | 0 W/m² | - |
| 1777862619 | 14.44° C | 81% | 1022.8 hPa | 0 mm | - | 0 W/m² | - |
| 1777862316 | 14.44° C | 82% | 1022.8 hPa | 0 mm | - | 0 W/m² | - |
| 1777862013 | 15° C | 85% | 1022.4 hPa | 0 mm | - | 0 W/m² | - |
| 1777861708 | 15° C | 85% | 1022.4 hPa | 0 mm | - | 0 W/m² | - |
| 1777861406 | 14.44° C | 83% | 1022.4 hPa | 0 mm | - | 0 W/m² | - |
* Rain latest hour (hover to see other rain measurements)
** Current wind speed in m/s (hover to see current wind gust speed)